Regional Weather Roundup
Issued by NWS

Home | Current Version | Previous Version | Graphics & Text | Print | Product List | Glossary On
Versions: 1 2 3 4 5 6 7 8 9 10 11 12 13 14 15 16 17 18 19 20 21 22 23 24 25 26 27 28 29 30 31 32 33 34 35 36 37 38 39 40 41 42 43 44 45 46 47 48 49 50
000
ASUS43 KMKX 170100
RWRWI

WISCONSIN REGIONAL WEATHER ROUNDUP
NATIONAL WEATHER SERVICE MILWAUKEE/SULLIVAN WI
800 PM CDT TUE SEP 16 2014

NOTE: "FAIR" INDICATES FEW OR NO CLOUDS BELOW 12,000 FEET WITH NO
SIGNIFICANT WEATHER AND/OR OBSTRUCTIONS TO VISIBILITY.

WIZ001-002-006>008-014>016-023>028-170200-
NORTHWEST WISCONSIN

CITY           SKY/WX    TMP DP  RH WIND       PRES   REMARKS
SUPERIOR ARPT  CLEAR     58  46  63 SW8       29.98S
ASHLAND        PTCLDY    57  45  64 SW8       30.00R
HAYWARD        CLEAR     53  45  74 S3        30.03S
SIREN          CLEAR     57  45  65 S3        30.03S
RICE LAKE      CLEAR     56  45  65 CALM      30.05F
LADYSMITH      CLEAR     54  45  70 SW3       30.05F
EAU CLAIRE     CLEAR     55  44  66 CALM      30.04F
MENOMONIE      CLEAR     56  46  68 S5        30.04F
NEW RICHMOND   CLEAR     54  45  71 CALM      30.04S
OSCEOLA        CLEAR     55  48  77 CALM      30.05S
$$

WIZ003>005-009-010-017-018-170200-
NORTH CENTRAL WISCONSIN

CITY           SKY/WX    TMP DP  RH WIND       PRES   REMARKS
WOODRUFF       NOT AVBL
RHINELANDER    CLEAR     49  43  80 W3        30.04S
EAGLE RIVER    CLEAR     50  43  77 SW3       30.02R
LAND O LAKES   PTCLDY    56  42  58 CALM      30.02S
PHILLIPS       CLEAR     53  45  74 CALM      30.03S
TOMAHAWK       CLEAR     51  43  74 CALM      30.04S
MEDFORD        CLEAR     51  45  78 SW5       30.05F
MERRILL        MOCLDY    53  44  72 W3        30.05S
$$

WIZ029-030-035-036-043>047-170200-
CENTRAL WISCONSIN

CITY           SKY/WX    TMP DP  RH WIND       PRES   REMARKS
WAUSAU         CLEAR     56  46  69 SW7       30.05R
MOSINEE        NOT AVBL
MARSHFIELD     CLEAR     54  46  74 S5        30.06S
STEVENS POINT  CLEAR     53  44  71 CALM      30.07R
WAUPACA        CLEAR     57  45  63 W3        30.06S
WAUTOMA        NOT AVBL
WISC RAPIDS      N/A     50  48  93 CALM      30.08S
CAMP DOUGLAS   NOT AVBL
$$

WIZ011>013-019>022-031-037>040-048>050-170200-
NORTHEAST WISCONSIN

CITY           SKY/WX    TMP DP  RH WIND       PRES   REMARKS
ANTIGO         CLEAR     52  44  73 SW7       30.05S
STURGEON BAY   CLEAR     55  45  67 SW7       30.04S
GREEN BAY      CLEAR     55  46  71 SW5       30.05S
MANITOWOC      NOT AVBL
APPLETON       PTCLDY    57  43  58 SW7       30.07
CLINTONVILLE   CLEAR     54  45  71 SW5       30.05S
OSHKOSH        CLEAR     55  45  68 S5        30.07S
$$

WIZ032>034-041-042-053>061-170200-
SOUTHWEST WISCONSIN

CITY           SKY/WX    TMP DP  RH WIND       PRES   REMARKS
LA CROSSE      CLEAR     56  48  74 E5        30.05F
SPARTA         CLEAR     51  47  86 E3        30.08S
VIROQUA        FAIR      55  44  68 S3        30.07F
BOSCOBEL       CLEAR     52  49  89 CALM      30.08S
PRAIRIE DU CHI CLEAR     55  48  78 CALM      30.06F
PLATTEVILLE    FAIR      59  44  58 CALM      30.09S
$$

WIZ056-057-062-063-064-067-068-170200-
SOUTH CENTRAL WISCONSIN

CITY           SKY/WX    TMP DP  RH WIND       PRES   REMARKS
BARABOO/DELLS  CLEAR     54  44  68 CALM      30.08S
LONE ROCK      NOT AVBL
WATERTOWN      CLEAR     50  46  87 CALM      30.09S
MADISON        CLEAR     52  46  80 CALM      30.09S
MIDDLETON      FAIR      53  47  82 CALM      30.09S
MONROE         CLEAR     59  43  55 W3        30.09S
JANESVILLE     CLEAR     55  45  67 CALM      30.08S
$$

WIZ051-052-058>065-066-070>072-170200-
SOUTHEAST WISCONSIN

CITY           SKY/WX    TMP DP  RH WIND       PRES   REMARKS
MILWAUKEE      CLEAR     54  44  69 S8        30.10R
WAUKESHA       CLEAR     46  41  81 CALM      30.10S
MILWAUKEE/TIMM NOT AVBL
RACINE         CLEAR     54  45  71 CALM      30.11S
BURLINGTON     CLEAR     47  45  93 CALM      30.09S
KENOSHA        CLEAR     54  45  71 SE5       30.11R
FOND DU LAC    CLEAR     53  44  71 SW3       30.08S
SHEBOYGAN      CLEAR     52  45  77 S3        30.08S
WEST BEND      CLEAR     50  43  76 CALM      30.08S
JUNEAU         CLEAR     53  45  73 CALM      30.09S
$$

LSZ147-162-170200-
LAKE SUPERIOR

STATION/POSITION TIME  TEMP    WIND        PRES    WAVE
                       AIR SEA DIR/SP/G            HT/PER
                 (UTC) (F)     (DEG/KT/KT) (MB)    (FT/S)
W MID LAKE BUOY  2350   51 46  300/  4/  6 1014.8S   3/ 6
DEVILS ISLAND    0000   59     250/ 15/ 16 1014.6S
PORT WING        0000   64     210/  5/  7 1015.2S
SAXON HARBOR     0040   58     190/  2/  4 1015.6S
$$

LMZ867-665-643>646-170200-
LAKE MICHIGAN

STATION/POSITION TIME  TEMP    WIND        PRES    WAVE
                       AIR SEA DIR/SP/G            HT/PER
                 (UTC) (F)     (DEG/KT/KT) (MB)    (FT/S)
N MID LAKE BUOY  2350   58 58  210/ 19/ 21 1015.8F   3/ 4
NORTHPORT PIER   0000   60     190/  3/  7 1015.6F
KEWAUNEE LAKESHO 0000   60     230/  5/  8 1016.5F
SHEBOYGAN LAKESH 0000   58 49  200/  8/  9 1018.8F
PORT WASHINGTON  0000   57     200/  4/  6 1019.3F
ATWATER BUOY     0000   59     150/  8/ 10 1020.0F
MILWAUKEE LAKESH 0000   58     150/  9/ 11   N/A
S MID LAKE BUOY  2350   58 65  140/  2/  4 1019.8F   1
KENOSHA   LAKESH 0000   59     160/  8/ 10 1018.6F
$$

TC  - TEMPERATURE IN CELSIUS
VSB - VISIBILITY IN STATUTE MILES
WCI - WIND CHILL INDEX
HX  - HEAT INDEX



USA.gov is the U.S. government's official web portal to all federal, state and local government web resources and services.